Bennington, VT

12:25 AM EST on December 16, 2019 (GMT -0500)
Morse State

Weather History for KDDH - September, 2019

Change the Weather History Date:

Saturday, September 28, 2019

  Actual Average Record
Temperature  
Mean Temperature 64 °F 54 °F  
Max Temperature 80 °F 66 °F 81 °F (2014)
Min Temperature 47 °F 43 °F 28 °F (2000)
Degree Days  
Heating Degree Days 1 11  
Month to date heating degree days 166 182  
Since 1 July heating degree days 201 254  
Cooling Degree Days 0 0  
Month to date cooling degree days 21 22  
Year to date cooling degree days 372 310  
Growing Degree Days 14 (Base 50)    
Moisture  
Dew Point 57 °F    
Average Humidity 74    
Maximum Humidity 93    
Minimum Humidity 54    
Precipitation  
Precipitation T in 0.14 in 1.04 in (2003)
Month to date precipitation 2.26 3.30  
Year to date precipitation 29.73 30.84  
Sea Level Pressure  
Sea Level Pressure 30.05 in    
Wind  
Wind Speed 4 mph (SW)    
Max Wind Speed 14 mph    
Max Gust Speed 17 mph    
Visibility 10 miles    
Events Rain    
T = Trace of Precipitation, MM = Missing Value Source: NWS Daily Summary

Daily Weather History Graph

Daily Weather History Graph

Search for Another Location

Airport or City:

Astronomy

Sep. 28, 2019 Rise Set
Actual Time 6:46 AM EDT 6:40 PM EDT
Civil Twilight 6:18 AM EDT 7:08 PM EDT
Nautical Twilight 5:45 AM EDT 7:41 PM EDT
Astronomical Twilight 5:11 AM EDT 8:14 PM EDT
Moon 6:17 AM EDT (9/28) 7:05 PM EDT (9/28)
Length of Visible Light 12h 49m
Length of Day
11h 53m
Waning Crescent, 0% of the Moon is Illuminated
Sep 28
Waning Crescent
Sep 28
New
Oct 5
First Quarter
Oct 13
Full
Oct 21
Last Quarter

Hourly Weather History & Observations

Time (EDT) Temp. Heat Index Dew Point Humidity Pressure Visibility Wind Dir Wind Speed Gust Speed Precip Events Conditions
12:54 AM 50.0 °F - 46.0 °F 86% 30.08 in 10.0 mi Calm Calm - N/A   Clear
1:54 AM 48.9 °F - 46.0 °F 90% 30.08 in 10.0 mi SSW 3.5 mph - N/A   Clear
2:54 AM 48.9 °F - 45.0 °F 86% 30.05 in 10.0 mi Variable 3.5 mph - N/A   Clear
3:54 AM 48.0 °F - 46.0 °F 93% 30.06 in 10.0 mi Variable 3.5 mph - N/A   Clear
4:54 AM 48.9 °F - 46.0 °F 90% 30.07 in 10.0 mi Calm Calm - N/A   Clear
5:54 AM 48.9 °F - 46.0 °F 90% 30.08 in 10.0 mi Calm Calm - N/A   Clear
6:54 AM 48.0 °F - 46.0 °F 93% 30.09 in 10.0 mi Calm Calm - N/A   Clear
7:54 AM 54.0 °F - 51.1 °F 90% 30.09 in 10.0 mi Calm Calm - N/A   Clear
8:54 AM 63.0 °F - 57.0 °F 81% 30.08 in 10.0 mi Calm Calm - N/A   Clear
9:54 AM 69.1 °F - 57.0 °F 65% 30.06 in 10.0 mi Variable 3.5 mph - N/A   Clear
10:54 AM 71.1 °F - 57.9 °F 63% 30.05 in 10.0 mi West 5.8 mph - N/A   Clear
11:54 AM 73.9 °F - 59.0 °F 59% 30.03 in 10.0 mi SSE 3.5 mph - N/A   Clear
12:54 PM 77.0 °F - 60.1 °F 56% 29.99 in 10.0 mi SW 8.1 mph - N/A   Clear
1:54 PM 80.1 °F 81.2 °F 62.1 °F 54% 29.99 in 10.0 mi Variable 6.9 mph - N/A   Clear
2:54 PM 78.1 °F - 61.0 °F 56% 29.99 in 10.0 mi WSW 6.9 mph - N/A   Mostly Cloudy
3:54 PM 77.0 °F - 62.1 °F 60% 30.00 in 10.0 mi SW 5.8 mph - N/A   Overcast
4:54 PM 78.1 °F - 63.0 °F 60% 30.01 in 10.0 mi SW 5.8 mph - N/A   Clear
5:54 PM 73.9 °F - 66.0 °F 76% 30.02 in 10.0 mi Calm Calm - N/A   Overcast
6:54 PM 70.0 °F - 66.0 °F 87% 30.04 in 10.0 mi SSW 4.6 mph - N/A   Overcast
7:54 PM 68.0 °F - 64.9 °F 90% 30.05 in 10.0 mi SW 3.5 mph - N/A   Clear
8:54 PM 68.0 °F - 64.0 °F 87% 30.06 in 10.0 mi Calm Calm - N/A   Mostly Cloudy
9:54 PM 71.1 °F - 64.0 °F 78% 30.07 in 10.0 mi SW 6.9 mph - 0.00 in Rain Light Rain
10:54 PM 70.0 °F - 63.0 °F 78% 30.10 in 10.0 mi SW 6.9 mph - 0.00 in Rain Light Rain
11:54 PM 69.1 °F - 62.1 °F 78% 30.10 in 10.0 mi SW 4.6 mph - 0.00 in   Overcast